Temperature
22 22 21 21 23 25 28 29 30 29 29 29 28 28 27 26 25 22 21 21 20 20 20 20 20 19 19 19 19 19 19 19 19 19 19 19 19 19 19 19 19 18 18 18 18 18 19 18 18
22 21 21 23 25 27 28 29 29 29 29 29 28 27 27 25 23 22 21 21 20 20 20 20 20 19 19 19 19 19 19 19 19 19 19 19 19 19 19 19 18 18 18 18 18 18 18 18 18
22 22 23 25 28 28 29 30 30 30 29 29 28 27 26 24 23 22 21 21 20 20 20 20 20 19 19 19 19 19 19 19 19 19 19 19 19 19 19 19 18 18 18 18 18 18 18 18 18
22 24 25 28 29 30 30 30 30 30 29 29 28 26 24 24 23 22 21 21 21 20 20 20 20 19 19 19 19 19 19 19 19 19 19 19 19 19 19 19 19 18 18 18 18 18 18 18 18
23 25 27 29 30 31 31 31 30 30 30 28 27 25 24 23 23 22 22 21 21 20 20 20 20 19 19 19 19 19 19 19 19 19 19 19 19 19 19 19 19 18 18 18 18 18 18 18 18
26 28 29 29 30 31 31 31 31 30 29 28 27 25 24 23 22 22 22 22 21 20 20 20 20 20 19 19 19 19 19 19 19 19 19 19 19 19 19 19 19 19 18 18 18 18 18 18 18
27 29 30 31 31 31 31 31 31 30 30 29 27 26 24 23 23 22 22 22 21 21 20 20 20 20 20 19 19 19 19 19 19 19 19 19 19 19 19 19 19 19 18 18 18 18 18 19 18
30 30 31 31 31 31 31 31 30 30 29 28 28 26 24 23 23 22 22 22 21 21 20 20 20 19 19 20 19 19 19 19 19 19 19 19 19 19 19 19 19 19 19 18 18 18 18 18 19
31 31 30 31 31 31 32 31 31 30 29 29 27 26 24 23 23 23 22 22 22 21 21 20 20 20 19 19 19 19 19 19 19 19 19 19 19 19 19 19 19 19 19 19 19 19 19 19 19
32 30 31 32 33 32 32 32 31 30 29 28 26 25 24 24 23 23 23 22 22 22 21 21 20 20 20 20 20 19 19 19 19 19 19 19 19 19 19 19 19 19 19 19 19 19 18 18 18
33 32 33 33 33 32 32 32 32 31 30 28 26 25 24 24 24 24 23 23 22 22 22 21 21 21 20 20 20 19 19 19 19 19 19 19 19 19 19 19 19 19 19 18 18 18 18 18 18
34 34 33 33 33 33 32 32 31 31 29 28 26 25 25 25 25 24 24 23 23 22 22 21 21 21 20 20 20 20 20 19 19 19 19 19 19 19 19 19 19 19 19 18 18 18 18 18 18
34 34 34 33 33 32 32 31 31 30 29 28 27 26 25 25 25 25 24 23 23 22 22 21 21 20 20 20 20 20 20 20 20 19 19 19 19 19 19 19 19 19 18 19 18 18 19 19 19
34 34 33 33 33 33 32 32 31 30 29 28 27 26 26 26 25 25 24 23 23 22 22 21 21 20 20 20 20 20 20 20 20 19 19 19 19 19 19 19 19 19 19 19 19 19 19 19 19
33 33 33 34 33 33 32 31 31 30 29 28 28 27 27 26 26 25 24 23 23 22 21 21 21 20 20 20 20 20 20 20 20 19 19 19 19 19 19 19 19 19 19 19 19 19 19 19 19
33 33 31 33 34 33 32 30 31 30 30 29 28 28 27 26 26 25 24 24 23 22 21 21 21 20 20 20 20 20 20 20 19 19 19 19 19 19 19 19 19 19 19 19 19 19 19 19 19
32 31 31 33 34 34 33 31 31 30 30 29 29 28 27 27 26 25 25 24 23 22 21 21 21 20 20 20 20 20 20 20 20 19 19 19 19 19 19 19 19 19 19 19 19 19 19 19 19
31 32 32 32 34 34 33 31 32 31 31 30 29 28 28 27 26 25 25 24 23 22 21 21 21 20 20 20 20 20 20 20 19 19 19 19 19 19 19 19 19 19 19 19 19 19 19 19 19
33 33 32 33 34 34 33 32 32 32 31 31 29 29 28 27 27 26 25 24 23 22 21 21 20 20 20 20 20 20 20 20 19 19 19 19 19 19 19 19 19 19 19 19 19 19 19 19 19
33 32 33 33 35 34 33 32 32 33 32 31 30 29 29 28 27 26 25 24 23 22 21 21 20 20 20 20 20 20 20 20 19 19 19 19 19 19 19 19 19 18 19 18 19 19 19 19 19
33 33 33 33 34 34 33 32 31 32 32 32 31 30 29 28 27 26 25 25 24 22 22 21 21 21 20 20 20 20 20 20 19 19 19 19 19 19 19 19 18 18 18 18 18 18 18 19 19
32 34 34 33 33 32 32 30 31 31 31 32 31 31 30 29 28 26 26 25 24 23 22 21 21 21 20 20 20 20 20 20 19 19 19 19 19 19 19 19 18 18 18 18 18 18 18 18 18
33 34 34 33 32 32 32 31 31 32 30 31 32 31 30 29 28 27 26 25 25 23 22 22 21 21 21 20 20 20 20 20 19 19 19 19 19 19 19 18 18 18 18 18 18 18 18 18 18
33 33 33 33 32 30 31 31 30 31 31 32 32 31 30 30 28 28 27 25 25 24 23 22 21 21 21 21 20 20 20 20 19 19 19 19 19 19 19 18 18 18 18 18 18 18 18 18 18
33 32 31 30 30 30 31 31 30 31 33 33 32 31 30 29 28 27 26 26 25 24 23 22 22 21 21 21 20 20 20 20 19 19 19 19 19 19 19 18 18 18 18 18 18 18 18 18 18
33 33 30 29 29 29 30 30 31 32 33 33 32 31 30 30 29 28 27 26 25 24 23 22 22 21 21 21 21 20 20 20 19 19 19 19 19 19 19 18 18 18 18 17 18 17 17 17 17
32 33 33 31 31 30 30 31 32 32 32 32 32 31 30 30 29 28 27 26 25 24 23 23 22 21 21 21 21 20 20 20 19 19 19 19 19 18 18 18 18 18 18 17 17 17 17 17 17
33 33 32 31 29 29 29 30 30 31 31 31 31 30 30 29 29 28 27 26 25 25 24 23 22 21 21 21 20 20 20 20 19 19 19 19 19 18 18 18 18 18 17 17 18 17 17 17 17
32 32 32 32 31 30 29 30 31 29 30 30 30 30 30 29 28 27 27 26 25 25 24 23 22 21 21 20 20 20 20 19 19 19 19 19 18 18 18 18 18 17 17 17 17 17 17 16 16
32 32 32 30 30 30 30 30 32 30 30 30 30 29 29 29 28 27 27 26 25 24 24 23 22 21 21 20 20 20 19 19 19 19 19 18 18 18 18 18 18 17 17 17 17 17 17 16 16
Wind_Speed
10 11 9 4 4 2 8 12 13 13 13 12 12 12 15 14 10 10 9 13 15 14 14 14 13 12 12 11 11 10 10 11 11 12 12 12 12 12 11 11 11 11 11 10 10 10 10 10 9
9 9 6 4 3 5 11 12 13 12 10 10 13 15 16 15 14 12 11 13 14 14 14 14 13 12 11 11 10 9 10 10 11 11 11 11 11 10 10 10 10 10 10 9 9 9 9 9 8
10 10 5 4 3 9 11 11 10 10 10 10 13 14 11 10 12 10 11 13 13 14 16 15 14 12 11 11 10 9 10 10 10 11 11 11 10 10 9 9 8 8 9 9 8 8 8 8 7
6 6 5 1 9 12 11 10 9 9 10 10 12 11 11 11 11 13 14 13 13 15 16 15 14 12 12 12 11 10 10 10 10 10 10 10 9 9 8 8 8 7 7 7 7 7 7 7 6
7 5 2 5 10 11 10 9 9 10 11 13 15 14 13 14 15 15 13 13 14 15 15 15 14 13 12 12 11 10 11 11 10 10 10 9 9 8 7 7 7 7 7 7 7 6 6 6 5
5 4 1 6 11 11 10 9 10 11 12 13 15 15 12 12 13 12 12 12 13 15 15 15 15 14 13 12 11 10 11 10 10 9 9 8 7 7 6 7 7 6 6 6 6 6 6 6 4
8 4 3 7 10 10 10 8 9 10 10 10 13 14 12 11 11 11 11 11 12 15 15 14 14 13 13 12 11 10 10 10 9 8 8 7 7 6 6 7 7 7 6 6 6 6 6 5 4
5 2 4 7 10 10 9 9 9 10 10 8 9 11 12 13 12 12 11 12 11 12 12 12 14 14 13 12 11 10 10 10 10 8 8 7 6 6 7 8 8 7 6 6 6 6 6 5 5
4 1 5 8 9 9 8 9 9 9 10 11 13 16 16 16 14 13 12 12 10 11 10 10 11 11 12 13 12 11 9 9 9 8 8 7 5 6 7 9 10 9 8 7 7 7 7 6 6
1 3 7 7 8 7 7 7 8 10 11 15 17 17 17 15 14 13 13 12 11 10 10 9 10 10 9 9 11 9 8 9 7 7 6 5 5 5 6 10 10 10 9 7 7 8 7 7 6
2 4 5 6 8 6 6 7 7 10 10 14 17 17 16 15 14 13 12 12 11 10 9 9 9 8 8 6 6 4 5 7 6 7 4 4 3 4 6 6 7 7 8 6 6 8 7 5 3
2 3 5 5 7 5 7 7 8 11 11 15 17 17 15 14 13 13 12 12 11 10 10 9 9 8 7 5 4 3 3 3 4 6 4 3 2 2 3 3 3 4 4 4 4 3 4 2 2
0 2 4 5 5 6 7 8 10 12 14 16 17 16 14 13 13 12 12 11 11 10 10 10 9 7 5 4 1 3 2 3 5 5 4 3 2 3 2 2 2 2 2 2 2 1 1 1 1
1 1 1 3 5 6 7 7 9 12 14 16 15 14 13 13 13 12 12 11 10 9 9 9 10 8 6 4 2 2 3 3 4 4 4 3 3 2 1 1 1 1 2 2 2 2 1 1 1
4 3 3 4 5 6 7 6 8 11 13 14 14 13 13 12 12 12 12 11 11 9 9 8 9 9 6 5 4 3 2 4 3 4 5 3 3 3 1 1 1 0 1 3 2 2 1 2 2
8 6 4 5 6 7 6 5 10 12 12 13 13 13 13 12 13 12 12 11 11 10 8 7 7 9 6 3 2 2 2 3 3 4 5 4 3 3 1 1 1 1 2 1 2 1 1 1 1
9 6 5 6 6 6 6 6 12 12 13 12 13 13 13 13 13 12 12 12 12 10 8 6 5 8 6 4 2 2 2 2 2 4 4 3 3 2 1 1 0 2 1 1 1 1 1 1 1
7 6 6 5 6 6 5 7 13 14 14 13 13 14 14 14 13 13 13 13 12 11 9 7 6 7 6 4 2 1 2 2 2 4 4 3 2 2 0 1 1 0 0 0 1 1 1 1 2
9 8 6 5 4 5 4 7 11 13 13 14 14 14 14 14 15 14 13 13 13 12 10 8 7 7 5 3 3 3 2 2 2 3 4 3 2 2 1 1 0 0 1 1 1 1 2 2 1
10 9 8 6 5 6 5 7 9 12 14 15 15 15 15 15 15 14 14 14 14 13 11 9 8 8 6 4 3 3 3 2 3 3 3 3 2 1 2 1 0 1 1 1 0 1 1 1 0
11 11 9 8 7 6 6 6 7 9 9 12 14 14 15 16 17 15 14 14 14 13 12 10 9 8 7 6 4 3 3 1 3 3 2 2 2 1 1 1 1 0 1 1 1 1 1 1 1
12 11 10 10 9 7 8 6 8 11 12 12 13 14 15 16 17 17 16 15 14 14 13 11 9 8 7 6 5 6 4 3 3 3 3 2 2 1 2 2 1 1 1 1 1 1 1 1 2
12 12 12 13 12 12 11 8 7 11 12 14 14 14 13 15 17 18 17 15 14 14 14 12 10 9 8 6 6 5 4 3 3 3 4 2 3 2 2 2 1 1 0 1 0 1 1 2 2
13 13 14 13 12 13 11 10 6 6 10 12 13 13 12 13 15 15 15 14 12 14 13 13 11 9 8 7 6 5 4 4 3 3 4 3 2 2 2 2 1 1 1 0 1 1 1 2 2
14 13 10 10 10 10 9 8 4 5 6 9 11 11 12 12 14 15 15 15 13 13 13 13 13 11 10 9 7 6 5 5 5 4 4 3 2 2 3 2 2 1 1 1 0 1 1 2 2
14 14 12 11 9 7 9 7 5 6 5 6 9 11 12 12 13 15 15 14 13 13 13 13 13 11 11 9 7 6 6 5 4 4 3 3 2 2 3 3 3 2 1 0 0 1 1 1 2
15 14 14 13 14 10 8 6 5 7 6 5 7 10 10 11 11 13 14 14 13 13 12 13 12 11 10 10 8 7 6 5 4 4 4 3 2 3 3 3 3 2 1 1 0 0 1 1 1
16 14 10 11 10 11 9 7 3 5 6 7 7 10 11 11 10 9 10 13 13 13 13 13 13 12 10 9 8 8 7 5 4 4 4 3 2 2 3 3 3 2 2 2 1 1 1 1 1
14 17 14 11 11 11 9 5 2 3 5 7 7 7 9 10 10 10 9 10 11 12 12 13 12 12 11 10 8 7 7 6 5 4 4 3 3 3 3 3 3 3 2 2 1 1 1 1 2
16 15 14 12 11 12 11 5 3 4 3 5 7 7 6 7 8 9 9 10 10 11 10 10 11 12 11 9 8 6 5 5 5 5 4 4 4 4 3 3 3 3 3 2 2 2 2 2 2
Wind_Direction
192 206 213 236 247 230 61 60 59 58 59 55 52 61 64 56 69 94 115 109 110 115 118 112 106 101 99 98 100 101 103 105 107 109 108 108 108 108 110 111 111 111 110 107 106 107 108 110 112
215 219 228 243 254 68 68 63 61 62 65 71 70 68 72 69 83 101 110 110 114 118 118 112 108 102 100 100 101 101 106 109 110 112 112 112 111 111 115 116 117 117 117 114 112 111 110 115 118
241 242 250 241 50 66 69 69 72 74 73 71 75 66 63 82 91 106 117 118 114 113 113 113 111 106 105 105 102 102 108 112 114 114 115 114 112 112 116 120 122 123 122 119 117 118 117 117 123
238 235 239 244 68 71 74 76 80 82 77 76 81 77 72 79 102 115 123 122 117 114 114 118 115 111 108 105 102 103 109 113 115 115 114 114 112 110 112 115 120 126 127 124 122 122 124 120 124
239 257 251 77 78 78 78 77 79 74 74 77 84 89 84 89 104 118 125 123 121 117 117 123 122 119 114 110 107 106 112 113 114 116 118 118 114 113 115 117 121 129 131 129 128 131 134 127 129
256 254 351 82 86 84 83 81 82 83 89 94 99 98 95 106 113 121 124 124 123 121 119 124 127 125 121 118 114 110 116 117 118 120 122 123 124 125 128 130 127 128 134 136 139 140 144 145 153
256 298 49 87 91 84 82 80 80 90 87 90 106 107 113 117 120 119 115 117 124 126 127 131 136 134 129 126 124 121 122 123 123 126 128 130 134 143 145 146 142 140 138 136 137 145 154 162 180
269 320 41 76 84 86 89 89 83 86 90 102 110 113 125 130 127 121 115 110 119 124 127 134 141 143 142 138 137 135 132 135 135 136 139 142 150 159 159 156 153 147 143 146 154 161 169 177 198
277 344 50 64 80 90 96 94 96 93 94 83 85 109 126 135 133 127 121 116 120 122 128 135 137 142 143 141 141 146 144 147 147 150 156 160 161 158 164 145 153 156 160 168 173 177 182 191 208
237 62 61 74 90 92 94 98 109 112 98 97 99 110 126 137 138 136 131 130 131 128 128 129 129 130 134 130 138 152 153 150 157 143 153 171 161 154 137 145 162 166 170 177 187 194 199 209 208
73 84 70 80 94 100 108 102 99 107 109 115 122 130 139 145 146 142 139 136 135 130 127 125 122 118 114 109 128 131 138 143 152 140 155 151 138 130 124 144 159 176 181 186 184 198 211 213 188
89 82 94 86 99 100 95 98 90 94 106 120 130 138 143 151 148 144 140 134 131 128 125 123 115 104 95 98 109 128 132 145 141 138 150 140 125 114 127 139 158 180 176 180 189 195 197 189 195
315 88 92 95 100 101 103 104 102 102 114 123 133 142 151 151 144 137 130 130 130 130 127 117 111 106 102 95 111 132 140 141 132 131 126 122 120 113 119 121 159 176 157 176 192 186 197 212 221
331 61 98 127 131 130 120 119 118 121 128 133 142 147 153 148 146 140 139 140 134 131 126 124 125 127 134 142 146 157 155 139 128 132 138 129 122 111 100 114 153 159 174 178 191 199 204 226 197
270 233 218 183 168 144 133 129 132 138 143 144 148 153 154 155 150 148 149 146 141 136 132 136 144 139 153 160 171 160 160 142 130 128 123 131 125 120 123 130 168 197 224 179 192 216 209 207 201
267 251 234 200 184 179 182 164 151 154 161 156 158 159 158 160 158 157 153 148 145 144 143 160 153 143 151 153 171 150 136 121 125 131 125 124 113 116 149 157 170 223 227 204 193 185 225 217 198
258 247 242 216 195 197 193 154 153 170 171 166 166 165 166 167 165 161 158 154 149 146 149 159 139 144 150 155 165 159 129 117 127 118 112 118 126 124 174 166 206 237 213 204 231 126 228 238 241
266 252 233 224 197 211 191 165 166 178 174 172 174 173 174 173 173 165 163 156 150 148 152 156 150 144 148 158 160 137 118 139 124 113 112 122 131 119 177 204 209 289 64 41 23 7 269 224 251
270 283 290 275 210 225 209 185 183 181 180 176 179 180 179 178 172 167 167 160 155 155 157 161 162 151 159 169 173 163 159 159 125 123 124 130 145 149 199 360 120 134 73 46 20 357 276 245 218
267 275 271 267 255 242 225 219 203 191 193 186 181 183 185 179 172 168 169 166 163 161 161 163 168 162 174 172 173 168 153 166 128 105 129 146 136 128 134 103 358 74 119 138 78 272 288 285 163
262 264 267 269 267 257 248 242 208 208 212 196 186 185 187 181 175 173 176 172 167 165 170 174 171 166 178 170 171 164 140 140 120 134 148 151 132 144 91 108 64 54 176 145 208 259 279 285 274
261 266 270 268 266 263 244 245 217 202 204 204 196 188 191 183 177 175 178 178 173 171 171 167 166 166 172 178 178 173 171 170 154 152 147 152 154 159 126 112 102 25 24 83 254 117 292 286 292
266 276 275 274 269 267 256 252 230 200 204 201 195 189 190 180 176 177 177 178 178 173 170 166 162 165 169 181 182 186 174 166 153 142 138 166 160 155 132 120 121 130 78 105 322 46 330 317 312
260 271 267 265 265 263 262 258 239 217 199 198 192 184 180 173 172 172 170 170 178 173 168 166 162 165 170 183 181 184 179 169 159 155 157 182 163 163 148 134 129 133 115 29 22 46 311 327 332
241 252 259 259 250 257 265 258 216 224 211 192 181 174 172 173 170 169 170 168 172 171 168 166 164 169 173 180 182 182 181 175 165 177 174 193 178 167 154 152 158 163 171 209 121 82 307 299 314
244 249 252 265 270 269 261 243 211 202 199 176 164 163 167 173 172 173 172 170 171 169 165 163 165 171 176 180 182 179 180 189 184 186 184 198 189 167 152 151 162 176 196 213 91 204 252 268 286
248 248 256 267 274 275 263 248 193 187 177 156 155 155 166 167 171 175 170 170 171 171 168 167 164 170 178 183 180 178 184 189 185 178 194 191 178 176 149 157 161 164 164 173 166 223 280 300 283
244 256 259 258 269 272 265 260 240 194 170 160 169 168 169 164 165 164 168 169 174 175 171 169 166 171 175 180 183 183 183 186 189 184 183 177 170 166 161 166 167 176 181 184 197 226 234 277 278
235 243 250 260 264 270 268 262 190 210 196 173 171 168 161 163 165 165 168 169 170 172 171 172 169 170 175 182 180 178 177 185 187 185 179 176 177 177 171 165 166 169 183 176 186 243 236 254 283
245 246 247 250 256 264 271 261 167 164 167 169 165 149 158 164 161 162 165 168 170 169 172 170 173 176 176 175 170 172 170 175 182 182 177 180 181 183 178 175 178 188 187 182 198 239 262 259 259
Height
1490 1491 1491 1494 1493 1489 1484 1475 1472 1474 1475 1478 1478 1479 1484 1487 1493 1506 1507 1507 1508 1508 1510 1510 1511 1513 1514 1515 1517 1518 1519 1520 1522 1523 1524 1526 1528 1529 1531 1532 1534 1535 1536 1537 1538 1540 1541 1542 1544
1490 1492 1494 1493 1490 1492 1487 1476 1477 1477 1479 1479 1481 1483 1487 1493 1498 1503 1507 1509 1510 1510 1511 1512 1513 1514 1515 1517 1518 1519 1520 1522 1523 1525 1526 1528 1530 1531 1532 1534 1535 1536 1537 1538 1539 1541 1542 1543 1545
1490 1493 1494 1487 1483 1486 1485 1477 1478 1478 1480 1481 1484 1488 1492 1498 1502 1505 1508 1510 1511 1512 1513 1514 1515 1516 1517 1518 1519 1521 1522 1523 1525 1526 1528 1529 1531 1532 1534 1535 1536 1537 1538 1539 1540 1542 1543 1544 1545
1491 1492 1490 1483 1483 1477 1477 1477 1477 1478 1480 1482 1485 1492 1498 1501 1504 1507 1509 1511 1513 1514 1515 1516 1517 1518 1518 1520 1521 1522 1523 1525 1526 1528 1529 1531 1532 1534 1535 1536 1537 1538 1539 1541 1541 1543 1544 1545 1547
1492 1489 1485 1483 1480 1476 1475 1477 1478 1479 1482 1485 1489 1496 1502 1505 1507 1509 1511 1513 1514 1516 1516 1518 1519 1520 1521 1522 1523 1524 1525 1526 1528 1529 1531 1532 1534 1535 1536 1537 1538 1539 1540 1541 1542 1543 1545 1546 1547
1491 1483 1486 1487 1481 1476 1476 1478 1479 1482 1484 1488 1492 1498 1505 1509 1509 1511 1512 1513 1515 1517 1518 1519 1521 1522 1523 1524 1525 1526 1526 1528 1530 1531 1533 1534 1535 1536 1537 1538 1539 1540 1541 1542 1543 1544 1546 1547 1548
1489 1481 1483 1481 1481 1479 1478 1479 1480 1483 1485 1489 1493 1499 1506 1510 1511 1512 1513 1513 1515 1518 1520 1521 1523 1524 1526 1526 1527 1528 1529 1530 1531 1533 1534 1535 1536 1537 1538 1539 1540 1541 1542 1543 1544 1545 1547 1548 1550
1482 1480 1480 1478 1480 1482 1479 1481 1483 1485 1488 1491 1493 1498 1506 1511 1513 1514 1514 1515 1516 1519 1522 1524 1525 1526 1527 1529 1529 1530 1531 1532 1533 1535 1536 1537 1538 1539 1539 1540 1541 1542 1543 1544 1545 1546 1548 1549 1550
1480 1482 1485 1480 1480 1481 1479 1481 1485 1487 1489 1492 1495 1499 1506 1511 1513 1515 1517 1518 1520 1522 1525 1526 1527 1529 1530 1531 1532 1532 1533 1534 1535 1536 1537 1538 1539 1540 1540 1542 1543 1544 1544 1545 1546 1548 1549 1550 1551
1478 1484 1481 1476 1476 1478 1480 1482 1484 1487 1490 1495 1500 1505 1508 1512 1514 1516 1519 1521 1523 1525 1527 1528 1530 1531 1533 1534 1534 1535 1535 1536 1537 1538 1539 1540 1541 1541 1542 1543 1544 1545 1546 1546 1548 1549 1550 1551 1552
1476 1479 1476 1475 1476 1479 1480 1482 1483 1486 1491 1497 1502 1506 1510 1513 1515 1517 1520 1522 1524 1526 1528 1530 1531 1533 1534 1536 1537 1537 1538 1538 1539 1540 1541 1541 1542 1543 1543 1544 1545 1546 1546 1547 1548 1549 1550 1551 1553
1475 1475 1475 1476 1478 1479 1480 1483 1485 1487 1493 1498 1503 1507 1510 1513 1515 1518 1520 1523 1525 1527 1529 1531 1532 1533 1535 1536 1538 1539 1539 1540 1541 1541 1542 1543 1543 1544 1545 1545 1545 1546 1547 1548 1549 1550 1550 1552 1553
1475 1475 1476 1477 1478 1480 1481 1484 1487 1491 1496 1500 1504 1508 1510 1513 1516 1518 1521 1524 1526 1528 1530 1531 1533 1534 1535 1537 1538 1540 1541 1541 1542 1542 1543 1544 1544 1545 1546 1546 1547 1547 1548 1549 1550 1550 1551 1552 1553
1476 1476 1476 1477 1478 1480 1482 1485 1488 1493 1497 1501 1504 1508 1510 1513 1516 1519 1522 1524 1527 1529 1531 1532 1533 1534 1536 1537 1539 1540 1541 1542 1542 1543 1543 1544 1545 1545 1546 1547 1547 1548 1549 1549 1550 1550 1551 1552 1552
1477 1476 1477 1475 1477 1479 1482 1488 1489 1493 1497 1500 1504 1507 1510 1513 1516 1519 1522 1524 1526 1529 1531 1532 1534 1535 1536 1538 1539 1541 1541 1542 1543 1543 1544 1544 1545 1546 1546 1547 1548 1548 1549 1549 1550 1550 1551 1551 1552
1477 1479 1485 1476 1473 1476 1482 1493 1488 1492 1495 1498 1502 1506 1509 1513 1516 1519 1521 1524 1526 1528 1530 1532 1534 1535 1536 1538 1539 1541 1542 1543 1543 1544 1544 1544 1545 1545 1546 1547 1547 1548 1548 1549 1549 1550 1550 1551 1551
1482 1488 1487 1478 1470 1471 1477 1487 1487 1490 1493 1496 1500 1504 1507 1511 1514 1517 1520 1523 1525 1527 1529 1532 1533 1534 1536 1538 1539 1541 1542 1543 1543 1544 1544 1544 1545 1545 1545 1546 1547 1548 1548 1548 1549 1549 1550 1551 1551
1488 1483 1482 1479 1470 1470 1475 1481 1482 1486 1488 1493 1497 1501 1505 1508 1512 1516 1519 1522 1524 1526 1528 1531 1533 1534 1536 1537 1539 1540 1542 1543 1543 1543 1544 1544 1545 1545 1545 1546 1547 1547 1548 1548 1549 1549 1550 1550 1550
1476 1476 1479 1473 1465 1469 1473 1477 1478 1481 1484 1488 1494 1498 1501 1505 1510 1514 1517 1520 1523 1525 1527 1529 1531 1533 1535 1536 1538 1539 1541 1542 1543 1543 1544 1544 1545 1545 1546 1546 1546 1547 1547 1547 1548 1549 1549 1549 1550
1474 1478 1477 1471 1464 1466 1472 1475 1473 1476 1479 1483 1488 1493 1497 1502 1507 1511 1515 1518 1521 1523 1525 1528 1530 1532 1533 1535 1537 1539 1540 1541 1542 1543 1543 1544 1545 1545 1546 1545 1546 1546 1546 1547 1547 1548 1548 1549 1550
1475 1476 1475 1473 1466 1464 1471 1478 1475 1473 1475 1479 1483 1488 1493 1497 1502 1507 1512 1515 1518 1521 1523 1526 1528 1530 1532 1534 1536 1538 1540 1541 1542 1542 1543 1544 1544 1544 1545 1545 1545 1545 1546 1546 1547 1547 1548 1548 1549
1477 1466 1466 1468 1473 1478 1475 1494 1479 1471 1473 1476 1479 1483 1488 1493 1498 1503 1508 1512 1516 1519 1521 1523 1526 1528 1530 1533 1535 1537 1538 1540 1541 1541 1542 1543 1543 1544 1545 1545 1545 1545 1545 1546 1546 1547 1547 1548 1548
1469 1463 1464 1466 1471 1477 1473 1482 1479 1467 1475 1472 1474 1478 1483 1488 1494 1499 1504 1509 1513 1517 1519 1521 1524 1526 1529 1531 1533 1535 1537 1539 1540 1541 1541 1542 1543 1543 1543 1544 1544 1544 1544 1545 1545 1546 1546 1547 1547
1463 1464 1465 1465 1471 1489 1478 1481 1483 1471 1468 1467 1469 1474 1479 1484 1490 1495 1500 1505 1510 1514 1517 1519 1521 1524 1526 1529 1531 1533 1535 1537 1538 1539 1540 1541 1542 1542 1542 1543 1543 1543 1543 1544 1544 1544 1545 1545 1546
1462 1474 1488 1492 1492 1491 1473 1476 1475 1462 1458 1460 1464 1470 1476 1482 1487 1493 1497 1501 1506 1510 1513 1516 1518 1521 1524 1526 1529 1531 1533 1535 1536 1537 1538 1540 1540 1541 1541 1541 1541 1541 1542 1542 1543 1543 1543 1544 1544
1461 1467 1488 1500 1497 1488 1475 1478 1467 1455 1457 1458 1462 1467 1473 1479 1484 1489 1494 1498 1502 1507 1510 1513 1515 1518 1521 1524 1526 1529 1531 1533 1534 1536 1537 1538 1539 1539 1539 1539 1540 1540 1540 1541 1541 1542 1542 1542 1543
1462 1462 1459 1473 1477 1485 1480 1469 1459 1455 1456 1458 1461 1466 1472 1477 1482 1487 1491 1496 1500 1504 1507 1510 1513 1516 1519 1522 1524 1526 1529 1530 1532 1533 1535 1536 1537 1537 1537 1538 1538 1538 1539 1539 1539 1540 1540 1541 1541
1452 1454 1462 1474 1490 1496 1485 1476 1471 1462 1459 1459 1463 1467 1471 1476 1480 1484 1489 1492 1497 1501 1505 1508 1511 1513 1517 1520 1522 1524 1526 1528 1530 1531 1532 1534 1535 1535 1536 1536 1536 1536 1537 1537 1537 1537 1538 1538 1539
1456 1458 1460 1463 1468 1485 1491 1481 1459 1461 1460 1461 1465 1468 1471 1474 1478 1482 1487 1490 1494 1499 1502 1506 1509 1511 1514 1517 1519 1522 1523 1526 1527 1529 1530 1531 1532 1533 1533 1534 1534 1534 1534 1534 1535 1535 1536 1536 1537
1449 1451 1456 1472 1475 1471 1477 1476 1453 1455 1457 1461 1464 1467 1471 1474 1477 1481 1485 1489 1492 1496 1500 1503 1506 1509 1511 1514 1516 1519 1521 1523 1525 1526 1527 1528 1529 1530 1531 1531 1532 1532 1532 1532 1533 1533 1534 1534 1534